Regional Weather Roundup
Issued by NWS Albany, NY

Home | Current Version | Previous Version | Text Only | Print | Product List | Glossary On
Versions: 1 2 3 4 5 6 7 8 9 10 11 12 13 14 15 16 17 18 19 20 21 22 23 24 25 26 27 28 29 30 31 32 33 34 35 36 37 38 39 40 41 42 43 44 45 46 47 48 49 50
000
ASUS41 KALY 310510
RWRALY

NEW YORK STATE HOURLY WEATHER ROUNDUP
NATIONAL WEATHER SERVICE ALBANY NY
100 AM EDT MON AUG 31 2015

NOTE: "FAIR" INDICATES FEW OR NO CLOUDS BELOW 12,000 FEET WITH NO
SIGNIFICANT WEATHER AND/OR NO OBSTRUCTIONS TO VISIBILITY.

NYZ032-033-038>043-046>054-057>066-NYZ062>081-310600-
EAST


CITY           SKY/WX    TMP DP  RH WIND       PRES   REMARKS
ALBANY         PTCLDY    69  64  84 CALM      30.01F
GLENS FALLS    CLEAR     63  60  90 CALM      30.01S
POUGHKEEPSIE   PTCLDY    69  66  90 CALM      30.02S
NEWBURGH       CLEAR     72  70  94 CALM      30.05S
MONTGOMERY     MOCLDY    69  67  93 W3        30.03F FOG
WHITE PLAINS   MOCLDY    72  67  84 CALM      30.03F
ISLIP          CLOUDY    74  70  87 SW8       30.02F
NEW YORK CITY  CLOUDY    80  67  64 SW9       30.02F
CENTRAL PARK   CLOUDY    78  67  68 VRB6      30.06F
$$

NYZ005>009-017-018-044>046-055-056-310600-
CENTRAL


CITY           SKY/WX    TMP DP  RH WIND       PRES   REMARKS
FULTON         CLEAR     62  60  93 CALM      30.02F FOG
SYRACUSE       CLEAR     67  65  93 CALM      30.02S
ROME           CLEAR     63  61  93 CALM      30.04F
ELMIRA         MOCLDY    64  64 100 W3        30.06S
BINGHAMTON     CLEAR     66  64  93 MISG      30.09R
MONTICELLO     MOCLDY    68  66  94 CALM      30.10R
$$

NYZ026>034-041>043-310600-
NORTH


CITY           SKY/WX    TMP DP  RH WIND       PRES   REMARKS
WATERTOWN      CLEAR     64  58  80 S5        30.01S
FORT DRUM      NOT AVBL
MASSENA        CLEAR     61  59  93 SW5       29.98S
SARANAC LAKE   CLEAR     53  52  96 S3        30.03S FOG
PLATTSBURGH    CLEAR     65  60  84 CALM      29.97F
$$

NYZ001>004-010>016-019>021-310600-
WEST


CITY           SKY/WX    TMP DP  RH WIND       PRES   REMARKS
NIAGARA FALLS  CLEAR     67  64  90 SW5       30.02S
BUFFALO        PTCLDY    67  63  87 S6        30.03S
DUNKIRK        MOCLDY    72  66  81 S7        30.04S
JAMESTOWN      PTCLDY    66  63  88 SW3       30.10S
WELLSVILLE     PTCLDY    67  64  90 SW7       30.14R
ROCHESTER      PTCLDY    65  62  90 SW3       30.03F
PENN YAN       CLEAR     68  66  93 SW3       30.06S
$$

             KEY
       WCI = WIND CHILL INDEX
       VSB = VISIBILITY
       HX  = HEAT INDEX
$$



USA.gov is the U.S. government's official web portal to all federal, state and local government web resources and services.